, AK

(GMT )
Anchorage

Weather History for PANC - May, 2013

Change the Weather History Date:

Tuesday, May 28, 2013

  Actual Average Record
Temperature  
Mean Temperature 55 °F 51 °F  
Max Temperature 67 °F 60 °F 74 °F (2013)
Min Temperature 42 °F 43 °F 33 °F (1958)
Degree Days  
Heating Degree Days 10    
Month to date heating degree days 591  
Since 1 July heating degree days 10339  
Cooling Degree Days 0    
Month to date cooling degree days 0  
Year to date cooling degree days 0  
Growing Degree Days 8 (Base 50)    
Moisture  
Dew Point 41 °F    
Average Humidity 63    
Maximum Humidity 83    
Minimum Humidity 43    
Precipitation  
Precipitation 0.00 in 0.03 in 0.27 in (1985)
Month to date precipitation 1.53 0.64  
Year to date precipitation 6.38 3.16  
Snow  
Snow 0.00 in 0.00 in 0.00 in ()
Month to date snowfall 1.3 0.3  
Since 1 July snowfall 94.0 74.5  
Snow Depth 0.00 in    
Sea Level Pressure  
Sea Level Pressure 29.70 in    
Wind  
Wind Speed 4 mph (SSW)    
Max Wind Speed 9 mph    
Max Gust Speed -    
Visibility 10 miles    
Events      
T = Trace of Precipitation, MM = Missing Value Source: NWS Daily Summary

Daily Weather History Graph

Daily Weather History Graph

Search for Another Location

Airport or City:

Trip Planner

Search our weather history database for the weather conditions in past years. The results will help you decide how hot, cold, wet, or windy it might be!

Date:

Astronomy

May. 28, 2013 Rise Set
Actual Time 4:43 AM AKDT 11:13 PM AKDT
Civil Twilight 3:10 AM AKDT 12:48 AM AKDT
Nautical Twilight Sun does not rise Sun does not rise
Astronomical Twilight Sun does not rise Sun does not rise
Moon 1:24 AM AKDT (5/28) 9:21 AM AKDT (5/28)
Length of Visible Light 21h 37m
Length of Day
18h 29m
Waning Gibbous, 81% of the Moon is Illuminated
May 28
Waning Gibbous
May 31
Last Quarter
Jun 8
New
Jun 16
First Quarter
Jun 23
Full

Hourly Weather History & Observations

Time (AKDT) Temp. Windchill Dew Point Humidity Pressure Visibility Wind Dir Wind Speed Gust Speed Precip Events Conditions
12:53 AM 48.9 °F - 39.0 °F 69% 29.78 in 10.0 mi Calm Calm - N/A   Clear
1:53 AM 48.9 °F - 39.9 °F 71% 29.77 in 10.0 mi South 9.2 mph - N/A   Clear
2:53 AM 46.0 °F 44.8 °F 39.0 °F 76% 29.77 in 10.0 mi SE 3.5 mph - N/A   Clear
3:53 AM 45.0 °F 43.5 °F 39.0 °F 80% 29.77 in 10.0 mi South 3.5 mph - N/A   Clear
4:53 AM 43.0 °F 41.3 °F 37.9 °F 82% 29.76 in 10.0 mi South 3.5 mph - N/A   Clear
5:53 AM 44.1 °F 42.5 °F 39.0 °F 82% 29.77 in 10.0 mi South 3.5 mph - N/A   Clear
6:53 AM 46.9 °F - 39.9 °F 77% 29.76 in 10.0 mi Calm Calm - N/A   Partly Cloudy
7:53 AM 48.9 °F - 41.0 °F 74% 29.76 in 10.0 mi North 3.5 mph - N/A   Partly Cloudy
8:53 AM 50.0 °F - 39.9 °F 68% 29.75 in 10.0 mi WNW 4.6 mph - N/A   Scattered Clouds
9:53 AM 51.1 °F - 39.9 °F 66% 29.73 in 10.0 mi NW 4.6 mph - N/A   Scattered Clouds
10:53 AM 53.1 °F - 41.0 °F 64% 29.73 in 10.0 mi NW 3.5 mph - N/A   Scattered Clouds
11:53 AM 57.9 °F - 43.0 °F 58% 29.71 in 10.0 mi NNW 4.6 mph - N/A   Scattered Clouds
12:53 PM 59.0 °F - 44.1 °F 58% 29.70 in 10.0 mi NNW 4.6 mph - N/A   Scattered Clouds
1:53 PM 64.9 °F - 41.0 °F 42% 29.68 in 10.0 mi West 8.1 mph - N/A   Scattered Clouds
2:53 PM 66.9 °F - 42.1 °F 40% 29.68 in 10.0 mi SSE 5.8 mph - N/A   Scattered Clouds
3:53 PM 71.1 °F - 42.1 °F 35% 29.67 in 10.0 mi Calm Calm - N/A   Partly Cloudy
4:53 PM 69.1 °F - 46.9 °F 45% 29.65 in 10.0 mi NNW 6.9 mph - N/A   Partly Cloudy
5:53 PM 68.0 °F - 48.9 °F 50% 29.65 in 10.0 mi West 4.6 mph - N/A   Partly Cloudy
6:53 PM 70.0 °F - 48.9 °F 47% 29.63 in 10.0 mi SSE 6.9 mph - N/A   Scattered Clouds
7:53 PM 69.1 °F - 41.0 °F 36% 29.63 in 10.0 mi South 4.6 mph - N/A   Partly Cloudy
8:53 PM 69.1 °F - 42.1 °F 38% 29.63 in 10.0 mi South 9.2 mph - N/A   Partly Cloudy
9:53 PM 66.0 °F - 42.1 °F 42% 29.63 in 10.0 mi South 9.2 mph - N/A   Partly Cloudy
10:53 PM 64.9 °F - 39.9 °F 40% 29.63 in 10.0 mi South 9.2 mph - N/A   Partly Cloudy
11:53 PM 64.9 °F - 39.0 °F 39% 29.64 in 10.0 mi SSE 9.2 mph - N/A   Partly Cloudy